Regional Weather Roundup
Issued by NWS

Home | Current Version | Previous Version | Text Only | Print | Product List | Glossary Off
Versions: 1 2 3 4 5 6 7 8 9 10 11 12 13 14 15 16 17 18 19 20 21 22 23 24 25 26 27 28 29 30 31 32 33 34 35 36 37 38 39 40 41 42 43 44 45 46 47 48 49 50

000
ASUS43 KIND 311309
RWRIN

WEATHER ROUNDUP FOR INDIANA
NATIONAL WEATHER SERVICE INDIANAPOLIS IN
900 AM EDT THU JUL 31 2014

NOTE: "FAIR" INDICATES FEW OR NO CLOUDS BELOW 12,000 FEET WITH NO
SIGNIFICANT WEATHER AND/OR OBSTRUCTIONS TO VISIBILITY.

* - STATION DOES NOT REPORT WEATHER SUCH AS PRECIPITATION OR FOG.

+ - STATION NOT QUALITY CONTROLLED BY THE NATIONAL WEATHER SERVICE.
    USE DATA WITH CAUTION...ESPECIALLY DEWPOINT AND RELATIVE
    HUMIDITY OBSERVATIONS.

INZ001>003-010>013-019-020-311400-
NORTHWEST INDIANA

CITY           SKY/WX    TMP DP  RH WIND       PRES   REMARKS
GARY /AIRPORT/ MOSUNNY   66  61  82 SW7       30.05S FOG
KNOX *+        SUNNY     60  58  94 CALM      30.05S
LA PORTE +     SUNNY     63  61  93 SW8       30.06S FOG
MICHIGAN CITY+ SUNNY     64  61  88 SW3       30.05S
MONTICELLO +   SUNNY     60  59  96 CALM      30.06S
RENSSELAER +   SUNNY     59  59 100 SW3       30.07  FOG
VALPARAISO     SUNNY     64  60  87 SW7       30.06S FOG

$$

LMZ046-743>745-311400-
SOUTHERN LAKE MICHIGAN

STATION/POSITION TIME  TEMP WIND        PRES
                       AIR  DIR/SP/G
                 (UTC) (F)  (DEG/KT/KT) (MB)
MICHIGAN CITY    1300   64  180/ 11/ 12   N/A

$$

INZ004-005-014>016-021>024-311400-
NORTH CENTRAL INDIANA

CITY           SKY/WX    TMP DP  RH WIND       PRES   REMARKS
ELKHART        SUNNY     63  57  82 SW6       30.05S
GOSHEN         SUNNY     63  58  83 SW7       30.05S
LOGANSPORT +   CLOUDY    59  59 100 SW6       30.08S FOG
PERU/GRISSOM   SUNNY     63  63 100 SW5       30.07S
ROCHESTER +    SUNNY     66  61  82 CALM      30.07S
SOUTH BEND     SUNNY     64  58  80 SW8       30.05S
WARSAW +       SUNNY     63  59  88 CALM      30.06S

$$

INZ006>009-017-018-025>027-311400-
NORTHEAST INDIANA

CITY           SKY/WX    TMP DP  RH WIND       PRES   REMARKS
ANGOLA *+      SUNNY     63  54  72 SW5       30.05S
AUBURN +       SUNNY     63  57  82 S3        30.07S
FORT WAYNE     SUNNY     63  59  87 CALM      30.08R
HUNTINGTON +   SUNNY     62  60  92 SW3       30.07R

$$

INZ028-029-035-036-043>045-051>053-311400-
WEST CENTRAL INDIANA

CITY           SKY/WX    TMP DP  RH WIND       PRES   REMARKS
GREENCASTLE +  SUNNY     64  61  88 CALM      30.10R
LAFAYETTE      SUNNY     62  60  93 SW3       30.07S FOG
TERRE HAUTE    SUNNY     66  61  84 CALM      30.09S

$$

INZ030>032-037>040-046>048-054>057-064-065-311400-
CENTRAL INDIANA

CITY           SKY/WX    TMP DP  RH WIND       PRES   REMARKS
CP ATTERBURY + SUNNY     64  63  94 CALM      30.10R
COLUMBUS       SUNNY     64  64 100 CALM      30.09S
FRANKFORT +    SUNNY    N/A N/A N/A W3        30.09
GREENWOOD *+   SUNNY     66  66 100 W5        30.09
INDIANAPOLIS   SUNNY     64  60  87 W5        30.09R
-EAGLE CREEK   SUNNY     65  60  84 CALM      30.08R
KOKOMO *+      SUNNY     64  61  88 W5        30.08S
MARION +       SUNNY     61  60  97 CALM      30.08S FOG
MT COMFORT *+  SUNNY     66 N/A N/A CALM      30.09R
SHELBYVILLE    SUNNY     66  62  87 SW5       30.09R
ZIONSVILLE +   SUNNY     66  61  85 W5        30.09R

$$

INZ033-034-041-042-049-050-058-059-311400-
EAST CENTRAL INDIANA

CITY           SKY/WX    TMP DP  RH WIND       PRES   REMARKS
MUNCIE         MOSUNNY   66  60  81 SW3       30.08S

$$

INZ060-061-067>069-081>083-085>088-311400-
SOUTHWEST INDIANA

CITY           SKY/WX    TMP DP  RH WIND       PRES   REMARKS
EVANSVILLE     SUNNY     68  61  78 SW3       30.11R
WASHINGTON +   SUNNY     66  64  92 NW3       30.10R

$$

INZ062-063-066-070>080-084-089>092-311400-
SOUTH CENTRAL AND SOUTHEAST INDIANA

CITY           SKY/WX    TMP DP  RH WIND       PRES   REMARKS
BEDFORD +      SUNNY     66  61  82 W3        30.10
BLOOMINGTON    SUNNY     66  62  87 W5        30.10R
NORTH VERNON + SUNNY     66  66 100 CALM      30.10

$$



USA.gov is the U.S. government's official web portal to all federal, state and local government web resources and services.